TimeEDT,TemperatureF,Dew PointF,Humidity,Sea Level PressureIn,VisibilityMPH,Wind Direction,Wind SpeedMPH,Gust SpeedMPH,PrecipitationIn,Events,Conditions,WindDirDegrees,DateUTC
12:56 AM,75.0,72.0,90,29.81,5.0,Calm,Calm,-,N/A,,Partly Cloudy,0,2013-09-01 04:56:00
1:56 AM,75.0,72.0,90,29.79,6.0,ESE,4.6,-,N/A,,Scattered Clouds,120,2013-09-01 05:56:00
2:56 AM,75.0,71.1,87,29.79,6.0,Calm,Calm,-,N/A,,Scattered Clouds,0,2013-09-01 06:56:00
3:56 AM,73.9,72.0,93,29.78,6.0,Calm,Calm,-,N/A,,Partly Cloudy,0,2013-09-01 07:56:00
4:56 AM,73.0,70.0,90,29.80,5.0,Calm,Calm,-,N/A,,Partly Cloudy,0,2013-09-01 08:56:00
5:56 AM,72.0,70.0,93,29.82,5.0,North,3.5,-,N/A,,Mostly Cloudy,10,2013-09-01 09:56:00
6:33 AM,71.6,69.8,94,29.83,4.0,Calm,Calm,-,N/A,,Mostly Cloudy,0,2013-09-01 10:33:00
6:56 AM,72.0,70.0,93,29.82,3.0,Calm,Calm,-,N/A,,Mostly Cloudy,0,2013-09-01 10:56:00
7:56 AM,73.9,70.0,87,29.83,4.0,Calm,Calm,-,N/A,,Mostly Cloudy,0,2013-09-01 11:56:00
8:56 AM,75.0,70.0,84,29.83,6.0,WNW,3.5,-,N/A,,Haze,300,2013-09-01 12:56:00
9:56 AM,77.0,70.0,79,29.84,7.0,Calm,Calm,-,N/A,,Overcast,0,2013-09-01 13:56:00
10:56 AM,80.1,71.1,74,29.84,6.0,SSE,3.5,-,N/A,,Haze,160,2013-09-01 14:56:00
11:56 AM,82.0,71.1,69,29.84,8.0,Calm,Calm,-,N/A,,Mostly Cloudy,0,2013-09-01 15:56:00
12:56 PM,84.0,72.0,67,29.81,7.0,Calm,Calm,-,N/A,,Mostly Cloudy,0,2013-09-01 16:56:00
1:56 PM,84.0,71.1,65,29.81,8.0,SE,3.5,-,N/A,,Mostly Cloudy,140,2013-09-01 17:56:00
2:56 PM,86.0,71.1,61,29.79,9.0,Calm,Calm,-,N/A,,Mostly Cloudy,0,2013-09-01 18:56:00
3:56 PM,86.0,72.0,63,29.78,8.0,SE,3.5,-,N/A,,Mostly Cloudy,130,2013-09-01 19:56:00
4:56 PM,86.0,73.0,65,29.77,9.0,SSE,4.6,-,N/A,,Mostly Cloudy,150,2013-09-01 20:56:00
5:56 PM,82.9,73.0,72,29.76,10.0,South,3.5,-,N/A,,Mostly Cloudy,170,2013-09-01 21:56:00
6:56 PM,81.0,73.9,79,29.75,10.0,SE,3.5,-,N/A,,Overcast,140,2013-09-01 22:56:00
7:56 PM,79.0,71.1,77,29.77,10.0,SE,3.5,-,N/A,,Overcast,130,2013-09-01 23:56:00
8:56 PM,77.0,72.0,84,29.78,10.0,SE,3.5,-,N/A,Thunderstorm,Thunderstorm,130,2013-09-02 00:56:00
9:30 PM,77.0,71.6,83,29.79,8.0,ESE,3.5,-,N/A,,Overcast,120,2013-09-02 01:30:00
9:56 PM,77.0,72.0,84,29.79,8.0,ESE,3.5,-,N/A,,Overcast,120,2013-09-02 01:56:00
10:28 PM,78.8,73.4,83,29.80,8.0,Calm,Calm,-,N/A,Thunderstorm,Thunderstorm,0,2013-09-02 02:28:00
10:56 PM,75.0,68.0,79,29.82,10.0,NW,16.1,-,N/A,Thunderstorm,Thunderstorm,310,2013-09-02 02:56:00
11:44 PM,73.4,69.8,88,29.80,10.0,Calm,Calm,-,0.00,Rain,Light Rain,0,2013-09-02 03:44:00
11:56 PM,73.0,69.1,87,29.78,10.0,East,3.5,-,0.01,Rain,Light Rain,80,2013-09-02 03:56:00